Tracking 25701 objects as of 4-Jul-2022
HD Live streaming from Space Station
objects crossing your sky now

FENGYUN 1C DEB

Track FENGYUN 1C DEB now!
10-day predictions


NORAD ID: 32115
Int'l Code: 1999-025CRH
Perigee: 804.3 km
Apogee: 839.9 km
Inclination: 98.9 °
Period: 101.2 minutes
Semi major axis: 7193 km
RCS: 0.0124 m2 (small)
Launch date: May 10, 1999
Source: People's Republic of China (PRC)
Launch site: Taiyaun Space Center, China (TSC)

Note: This is SATELLITE DEBRIS
aabbcc
Your satellite tracking list
Your tracking list is empty




NASA's NSSDC Master Catalog

Two Line Element Set (TLE):
1 32115U 99025CRH 22181.42500783  .00001270  00000-0  58169-3 0  9992
2 32115  98.9220 255.7574 0024727 353.5898   6.4960 14.23081946 58064
Source of the keplerian elements: AFSPC